,,PressureMeas_1m,,PRMeasQMR101_1,,RHStat155_1m_1,,SRMeasQMS101R_1m,,TAStat155_1m_1,,GenWind_1,,GenWind_1,
2019-07-22, 00:00:07,VALID,917.524,VALID,0.0,VALID,97.887,VALID,-0.012,VALID,21.088,INVALID,360.0,VALID,0.0,
2019-07-22, 00:01:07,VALID,917.508,VALID,0.0,VALID,97.909,VALID,0.002,VALID,21.086,INVALID,360.0,VALID,0.0,
2019-07-22, 00:02:07,VALID,917.488,VALID,0.0,VALID,98.045,VALID,-0.016,VALID,21.117,INVALID,360.0,VALID,0.0,
2019-07-22, 00:03:07,VALID,917.482,VALID,0.0,VALID,98.238,VALID,-0.002,VALID,21.157,INVALID,360.0,VALID,0.0,
2019-07-22, 00:04:07,VALID,917.468,VALID,0.0,VALID,98.27,VALID,0.015,VALID,21.143,INVALID,360.0,VALID,0.0,
2019-07-22, 00:05:07,VALID,917.448,VALID,0.0,VALID,98.252,VALID,0.024,VALID,21.134,INVALID,360.0,VALID,0.0,
2019-07-22, 00:06:07,VALID,917.45,VALID,0.0,VALID,98.303,VALID,0.025,VALID,21.134,INVALID,360.0,VALID,0.0,
2019-07-22, 00:07:07,VALID,917.404,VALID,0.0,VALID,98.342,VALID,0.025,VALID,21.142,INVALID,360.0,VALID,0.0,
2019-07-22, 00:08:07,VALID,917.394,VALID,0.0,VALID,98.399,VALID,0.041,VALID,21.163,INVALID,360.0,VALID,0.0,
2019-07-22, 00:09:07,VALID,917.395,VALID,0.0,VALID,98.351,VALID,-0.005,VALID,21.171,INVALID,360.0,VALID,0.0,
2019-07-22, 00:10:07,VALID,917.392,VALID,0.0,VALID,98.338,VALID,0.002,VALID,21.174,INVALID,360.0,VALID,0.0,
2019-07-22, 00:11:07,VALID,917.384,VALID,0.0,VALID,98.38,VALID,0.019,VALID,21.207,INVALID,360.0,VALID,0.0,
2019-07-22, 00:12:07,VALID,917.388,VALID,0.0,VALID,98.407,VALID,0.008,VALID,21.229,INVALID,360.0,VALID,0.0,
2019-07-22, 00:13:07,VALID,917.393,VALID,0.0,VALID,98.391,VALID,0.021,VALID,21.24,INVALID,360.0,VALID,0.0,
2019-07-22, 00:14:07,VALID,917.395,VALID,0.0,VALID,98.271,VALID,0.008,VALID,21.224,INVALID,360.0,VALID,0.0,
2019-07-22, 00:15:07,VALID,917.412,VALID,0.0,VALID,98.307,VALID,0.014,VALID,21.247,INVALID,360.0,VALID,0.0,
2019-07-22, 00:16:07,VALID,917.438,VALID,0.0,VALID,98.246,VALID,0.015,VALID,21.241,INVALID,360.0,VALID,0.0,
2019-07-22, 00:17:07,VALID,917.461,VALID,0.0,VALID,98.218,VALID,0.015,VALID,21.248,INVALID,360.0,VALID,0.0,
2019-07-22, 00:18:07,VALID,917.475,VALID,0.0,VALID,98.255,VALID,-0.001,VALID,21.255,INVALID,360.0,VALID,0.0,
2019-07-22, 00:19:07,VALID,917.486,VALID,0.0,VALID,98.235,VALID,0.003,VALID,21.266,INVALID,360.0,VALID,0.0,
2019-07-22, 00:20:07,VALID,917.481,VALID,0.0,VALID,98.237,VALID,-0.009,VALID,21.286,INVALID,360.0,VALID,0.0,
2019-07-22, 00:21:07,VALID,917.471,VALID,0.0,VALID,98.102,VALID,-0.01,VALID,21.263,INVALID,360.0,VALID,0.0,
2019-07-22, 00:22:07,VALID,917.464,VALID,0.0,VALID,98.02,VALID,-0.008,VALID,21.269,INVALID,360.0,VALID,0.0,
2019-07-22, 00:23:07,VALID,917.459,VALID,0.0,VALID,98.073,VALID,-0.005,VALID,21.304,INVALID,360.0,VALID,0.0,
2019-07-22, 00:24:07,VALID,917.453,VALID,0.0,VALID,98.09,VALID,-0.014,VALID,21.334,INVALID,360.0,VALID,0.0,
2019-07-22, 00:25:07,VALID,917.45,VALID,0.0,VALID,98.013,VALID,-0.023,VALID,21.322,INVALID,360.0,VALID,0.0,
2019-07-22, 00:26:07,VALID,917.469,VALID,0.0,VALID,97.934,VALID,-0.018,VALID,21.288,INVALID,360.0,VALID,0.0,
2019-07-22, 00:27:07,VALID,917.468,VALID,0.0,VALID,97.986,VALID,-0.003,VALID,21.263,INVALID,360.0,VALID,0.0,
2019-07-22, 00:28:07,VALID,917.468,VALID,0.0,VALID,98.106,VALID,0.0,VALID,21.262,INVALID,360.0,VALID,0.0,
2019-07-22, 00:29:07,VALID,917.467,VALID,0.0,VALID,98.211,VALID,-0.022,VALID,21.262,INVALID,360.0,VALID,0.0,
2019-07-22, 00:30:07,VALID,917.465,VALID,0.0,VALID,98.313,VALID,-0.014,VALID,21.289,INVALID,360.0,VALID,0.0,
2019-07-22, 00:31:07,VALID,917.487,VALID,0.0,VALID,98.315,VALID,-0.02,VALID,21.295,INVALID,360.0,VALID,0.0,
2019-07-22, 00:32:07,VALID,917.491,VALID,0.0,VALID,98.272,VALID,-0.004,VALID,21.277,INVALID,360.0,VALID,0.0,
2019-07-22, 00:33:07,VALID,917.527,VALID,0.0,VALID,98.252,VALID,0.006,VALID,21.275,INVALID,360.0,VALID,0.0,
2019-07-22, 00:34:07,VALID,917.523,VALID,0.0,VALID,98.017,VALID,0.0,VALID,21.235,INVALID,360.0,VALID,0.0,
2019-07-22, 00:35:07,VALID,917.528,VALID,0.0,VALID,97.956,VALID,-0.002,VALID,21.243,INVALID,360.0,VALID,0.0,
2019-07-22, 00:36:07,VALID,917.525,VALID,0.0,VALID,97.992,VALID,-0.008,VALID,21.273,INVALID,360.0,VALID,0.0,
2019-07-22, 00:37:07,VALID,917.522,VALID,0.0,VALID,97.818,VALID,0.004,VALID,21.246,INVALID,360.0,VALID,0.0,
2019-07-22, 00:38:07,VALID,917.529,VALID,0.0,VALID,97.735,VALID,0.011,VALID,21.263,INVALID,360.0,VALID,0.0,
2019-07-22, 00:39:07,VALID,917.529,VALID,0.0,VALID,97.749,VALID,0.001,VALID,21.288,INVALID,360.0,VALID,0.0,
2019-07-22, 00:40:07,VALID,917.531,VALID,0.0,VALID,97.655,VALID,0.002,VALID,21.292,INVALID,360.0,VALID,0.0,
2019-07-22, 00:41:07,VALID,917.519,VALID,0.0,VALID,97.787,VALID,-0.007,VALID,21.34,INVALID,360.0,VALID,0.0,
2019-07-22, 00:42:07,VALID,917.512,VALID,0.0,VALID,97.702,VALID,0.001,VALID,21.35,INVALID,360.0,VALID,0.0,
2019-07-22, 00:43:07,VALID,917.501,VALID,0.0,VALID,97.678,VALID,0.002,VALID,21.354,INVALID,360.0,VALID,0.0,
2019-07-22, 00:44:07,VALID,917.478,VALID,0.0,VALID,97.542,VALID,-0.004,VALID,21.321,INVALID,360.0,VALID,0.0,
2019-07-22, 00:45:07,VALID,917.452,VALID,0.0,VALID,97.682,VALID,0.003,VALID,21.359,INVALID,360.0,VALID,0.0,
2019-07-22, 00:46:07,VALID,917.422,VALID,0.0,VALID,97.559,VALID,-0.002,VALID,21.358,INVALID,360.0,VALID,0.0,
2019-07-22, 00:47:06,VALID,917.411,VALID,0.0,VALID,97.437,VALID,-0.006,VALID,21.367,INVALID,360.0,VALID,0.0,
2019-07-22, 00:48:06,VALID,917.424,VALID,0.0,VALID,97.393,VALID,-0.0,VALID,21.343,INVALID,360.0,VALID,0.0,
2019-07-22, 00:49:06,VALID,917.414,VALID,0.0,VALID,97.445,VALID,-0.024,VALID,21.323,INVALID,360.0,VALID,0.0,
2019-07-22, 00:50:06,VALID,917.441,VALID,0.0,VALID,97.574,VALID,-0.017,VALID,21.297,INVALID,360.0,VALID,0.0,
2019-07-22, 00:51:06,VALID,917.437,VALID,0.0,VALID,97.738,VALID,0.002,VALID,21.303,INVALID,360.0,VALID,0.0,
2019-07-22, 00:52:06,VALID,917.439,VALID,0.0,VALID,97.602,VALID,-0.002,VALID,21.275,INVALID,360.0,VALID,0.0,
2019-07-22, 00:53:06,VALID,917.433,VALID,0.0,VALID,97.594,VALID,0.004,VALID,21.27,INVALID,360.0,VALID,0.0,
2019-07-22, 00:54:06,VALID,917.426,VALID,0.0,VALID,97.569,VALID,-0.003,VALID,21.265,INVALID,360.0,VALID,0.0,
2019-07-22, 00:55:06,VALID,917.418,VALID,0.0,VALID,97.55,VALID,-0.019,VALID,21.249,INVALID,360.0,VALID,0.0,
2019-07-22, 00:56:06,VALID,917.426,VALID,0.0,VALID,97.433,VALID,-0.008,VALID,21.204,INVALID,360.0,VALID,0.0,
2019-07-22, 00:57:06,VALID,917.42,VALID,0.0,VALID,97.45,VALID,0.005,VALID,21.187,INVALID,360.0,VALID,0.0,
2019-07-22, 00:58:06,VALID,917.441,VALID,0.0,VALID,97.477,VALID,-0.026,VALID,21.184,INVALID,360.0,VALID,0.0,
2019-07-22, 00:59:06,VALID,917.415,VALID,0.0,VALID,97.405,VALID,-0.008,VALID,21.168,INVALID,360.0,VALID,0.0,
2019-07-22, 01:00:06,VALID,917.406,VALID,0.0,VALID,97.491,VALID,-0.009,VALID,21.18,INVALID,360.0,VALID,0.0,
2019-07-22, 01:01:06,VALID,917.402,VALID,0.0,VALID,97.613,VALID,-0.008,VALID,21.227,INVALID,360.0,VALID,0.0,
2019-07-22, 01:02:06,VALID,917.394,VALID,0.0,VALID,97.508,VALID,0.004,VALID,21.244,INVALID,360.0,VALID,0.0,
2019-07-22, 01:03:06,VALID,917.38,VALID,0.0,VALID,97.307,VALID,0.006,VALID,21.241,INVALID,360.0,VALID,0.0,
2019-07-22, 01:04:06,VALID,917.371,VALID,0.0,VALID,97.297,VALID,-0.003,VALID,21.268,INVALID,360.0,VALID,0.0,
2019-07-22, 01:05:06,VALID,917.359,VALID,0.0,VALID,97.349,VALID,0.011,VALID,21.29,INVALID,360.0,VALID,0.0,
2019-07-22, 01:06:06,VALID,917.327,VALID,0.0,VALID,97.244,VALID,-0.001,VALID,21.288,INVALID,360.0,VALID,0.0,
2019-07-22, 01:07:06,VALID,917.315,VALID,0.0,VALID,97.193,VALID,-0.002,VALID,21.283,INVALID,360.0,VALID,0.0,
2019-07-22, 01:08:06,VALID,917.299,VALID,0.0,VALID,97.272,VALID,0.005,VALID,21.296,INVALID,360.0,VALID,0.0,
2019-07-22, 01:09:06,VALID,917.257,VALID,0.0,VALID,97.221,VALID,-0.003,VALID,21.28,VALID,345.0,VALID,0.0,
2019-07-22, 01:10:06,VALID,917.229,VALID,0.0,VALID,97.074,VALID,-0.009,VALID,21.249,INVALID,360.0,VALID,0.0,
2019-07-22, 01:11:06,VALID,917.222,VALID,0.0,VALID,97.1,VALID,0.005,VALID,21.245,INVALID,360.0,VALID,0.0,
2019-07-22, 01:12:06,VALID,917.207,VALID,0.0,VALID,97.202,VALID,-0.008,VALID,21.249,INVALID,360.0,VALID,0.0,
2019-07-22, 01:13:06,VALID,917.179,VALID,0.0,VALID,97.301,VALID,0.006,VALID,21.279,INVALID,360.0,VALID,0.0,
2019-07-22, 01:14:06,VALID,917.181,VALID,0.0,VALID,97.263,VALID,-0.006,VALID,21.273,INVALID,360.0,VALID,0.0,
2019-07-22, 01:15:06,VALID,917.143,VALID,0.0,VALID,97.324,VALID,-0.004,VALID,21.285,INVALID,360.0,VALID,0.0,
2019-07-22, 01:16:06,VALID,917.123,VALID,0.0,VALID,97.259,VALID,-0.006,VALID,21.285,INVALID,360.0,VALID,0.0,
2019-07-22, 01:17:06,VALID,917.111,VALID,0.0,VALID,97.128,VALID,-0.011,VALID,21.263,INVALID,360.0,VALID,0.0,
2019-07-22, 01:18:06,VALID,917.089,VALID,0.0,VALID,97.132,VALID,0.001,VALID,21.267,INVALID,360.0,VALID,0.0,
2019-07-22, 01:19:06,VALID,917.074,VALID,0.0,VALID,97.011,VALID,0.013,VALID,21.275,INVALID,360.0,VALID,0.0,
2019-07-22, 01:20:06,VALID,917.063,VALID,0.0,VALID,97.006,VALID,0.026,VALID,21.273,INVALID,360.0,VALID,0.0,
2019-07-22, 01:21:06,VALID,917.045,VALID,0.0,VALID,97.006,VALID,0.011,VALID,21.258,INVALID,360.0,VALID,0.0,
2019-07-22, 01:22:06,VALID,917.008,VALID,0.0,VALID,97.069,VALID,0.018,VALID,21.25,INVALID,360.0,VALID,0.0,
2019-07-22, 01:23:06,VALID,916.991,VALID,0.0,VALID,97.058,VALID,0.015,VALID,21.221,INVALID,360.0,VALID,0.0,
2019-07-22, 01:24:06,VALID,916.95,VALID,0.0,VALID,97.173,VALID,0.016,VALID,21.19,INVALID,360.0,VALID,0.0,
2019-07-22, 01:25:06,VALID,916.938,VALID,0.0,VALID,97.34,VALID,-0.006,VALID,21.172,INVALID,360.0,VALID,0.0,
2019-07-22, 01:26:06,VALID,916.94,VALID,0.0,VALID,97.471,VALID,0.002,VALID,21.147,INVALID,360.0,VALID,0.0,
2019-07-22, 01:27:06,VALID,916.935,VALID,0.0,VALID,97.613,VALID,-0.0,VALID,21.136,INVALID,360.0,VALID,0.0,
2019-07-22, 01:28:06,VALID,916.92,VALID,0.0,VALID,97.786,VALID,0.004,VALID,21.141,INVALID,360.0,VALID,0.0,
2019-07-22, 01:29:06,VALID,916.916,VALID,0.0,VALID,97.888,VALID,0.019,VALID,21.148,INVALID,360.0,VALID,0.0,
2019-07-22, 01:30:06,VALID,916.924,VALID,0.0,VALID,97.701,VALID,0.008,VALID,21.103,INVALID,360.0,VALID,0.0,
2019-07-22, 01:31:06,VALID,916.927,VALID,0.0,VALID,97.741,VALID,-0.003,VALID,21.112,INVALID,360.0,VALID,0.0,
2019-07-22, 01:32:06,VALID,916.919,VALID,0.0,VALID,97.872,VALID,0.014,VALID,21.139,INVALID,360.0,VALID,0.0,
2019-07-22, 01:33:06,VALID,916.918,VALID,0.0,VALID,97.741,VALID,0.008,VALID,21.128,INVALID,360.0,VALID,0.0,
2019-07-22, 01:34:06,VALID,916.906,VALID,0.0,VALID,97.738,VALID,0.02,VALID,21.156,INVALID,360.0,VALID,0.0,
2019-07-22, 01:35:06,VALID,916.891,VALID,0.0,VALID,97.657,VALID,0.016,VALID,21.162,INVALID,360.0,VALID,0.0,
2019-07-22, 01:36:06,VALID,916.887,VALID,0.0,VALID,97.502,VALID,0.016,VALID,21.161,INVALID,360.0,VALID,0.0,
2019-07-22, 01:37:06,VALID,916.898,VALID,0.0,VALID,97.547,VALID,0.025,VALID,21.181,INVALID,360.0,VALID,0.0,
2019-07-22, 01:38:06,VALID,916.886,VALID,0.0,VALID,97.481,VALID,0.027,VALID,21.176,INVALID,360.0,VALID,0.0,
2019-07-22, 01:39:06,VALID,916.892,VALID,0.0,VALID,97.527,VALID,0.03,VALID,21.17,INVALID,360.0,VALID,0.0,
2019-07-22, 01:40:06,VALID,916.882,VALID,0.0,VALID,97.617,VALID,0.022,VALID,21.17,INVALID,360.0,VALID,0.0,
2019-07-22, 01:41:06,VALID,916.858,VALID,0.0,VALID,97.118,VALID,0.031,VALID,21.087,INVALID,360.0,VALID,0.0,
2019-07-22, 01:42:06,VALID,916.857,VALID,0.0,VALID,96.966,VALID,0.024,VALID,21.093,VALID,354.0,VALID,0.78,
2019-07-22, 01:43:06,VALID,916.842,VALID,0.0,VALID,97.08,VALID,0.021,VALID,21.113,VALID,2.0,VALID,1.645,
2019-07-22, 01:44:06,VALID,916.854,VALID,0.0,VALID,96.83,VALID,0.016,VALID,21.073,VALID,16.0,VALID,0.768,
2019-07-22, 01:45:06,VALID,916.829,VALID,0.0,VALID,96.956,VALID,0.023,VALID,21.09,VALID,37.0,VALID,0.661,
2019-07-22, 01:46:06,VALID,916.791,VALID,0.0,VALID,97.119,VALID,0.02,VALID,21.111,VALID,12.0,VALID,0.503,
2019-07-22, 01:47:06,VALID,916.788,VALID,0.0,VALID,97.185,VALID,0.035,VALID,21.135,VALID,9.0,VALID,0.417,
2019-07-22, 01:48:06,VALID,916.768,VALID,0.0,VALID,97.125,VALID,0.01,VALID,21.159,INVALID,360.0,VALID,0.017,
2019-07-22, 01:49:06,VALID,916.756,VALID,0.0,VALID,96.988,VALID,-0.026,VALID,21.176,INVALID,360.0,VALID,0.0,
2019-07-22, 01:50:06,VALID,916.755,VALID,0.0,VALID,96.847,VALID,-0.011,VALID,21.163,INVALID,360.0,VALID,0.0,
2019-07-22, 01:51:06,VALID,916.729,VALID,0.0,VALID,96.864,VALID,-0.01,VALID,21.154,INVALID,360.0,VALID,0.0,
2019-07-22, 01:52:06,VALID,916.692,VALID,0.0,VALID,96.72,VALID,-0.007,VALID,21.129,INVALID,360.0,VALID,0.0,
2019-07-22, 01:53:06,VALID,916.685,VALID,0.0,VALID,96.777,VALID,-0.009,VALID,21.119,INVALID,360.0,VALID,0.0,
2019-07-22, 01:54:06,VALID,916.649,VALID,0.0,VALID,96.979,VALID,-0.014,VALID,21.121,INVALID,360.0,VALID,0.0,
2019-07-22, 01:55:06,VALID,916.664,VALID,0.0,VALID,96.879,VALID,-0.017,VALID,21.095,INVALID,360.0,VALID,0.0,
2019-07-22, 01:56:06,VALID,916.639,VALID,0.0,VALID,96.963,VALID,-0.008,VALID,21.075,INVALID,360.0,VALID,0.0,
2019-07-22, 01:57:06,VALID,916.626,VALID,0.0,VALID,96.96,VALID,-0.005,VALID,20.998,INVALID,360.0,VALID,0.0,
2019-07-22, 01:58:06,VALID,916.619,VALID,0.0,VALID,97.011,VALID,-0.022,VALID,20.981,INVALID,360.0,VALID,0.0,
2019-07-22, 01:59:06,VALID,916.619,VALID,0.0,VALID,97.243,VALID,-0.004,VALID,20.992,INVALID,360.0,VALID,0.0,
2019-07-22, 02:00:06,VALID,916.611,VALID,0.0,VALID,97.335,VALID,0.002,VALID,20.975,INVALID,360.0,VALID,0.0,
2019-07-22, 02:01:06,VALID,916.614,VALID,0.0,VALID,97.459,VALID,-0.016,VALID,20.998,INVALID,360.0,VALID,0.0,
2019-07-22, 02:02:06,VALID,916.587,VALID,0.0,VALID,97.444,VALID,-0.023,VALID,21.035,INVALID,360.0,VALID,0.0,
2019-07-22, 02:03:06,VALID,916.589,VALID,0.0,VALID,97.175,VALID,0.002,VALID,21.03,INVALID,360.0,VALID,0.0,
2019-07-22, 02:04:06,VALID,916.585,VALID,0.0,VALID,97.007,VALID,-0.0,VALID,21.013,INVALID,360.0,VALID,0.0,
2019-07-22, 02:05:06,VALID,916.576,VALID,0.0,VALID,96.751,VALID,-0.002,VALID,20.976,INVALID,360.0,VALID,0.0,
2019-07-22, 02:06:06,VALID,916.574,VALID,0.0,VALID,96.807,VALID,-0.005,VALID,20.981,INVALID,360.0,VALID,0.0,
2019-07-22, 02:07:06,VALID,916.549,VALID,0.0,VALID,96.842,VALID,-0.009,VALID,20.976,INVALID,360.0,VALID,0.273,
2019-07-22, 02:08:06,VALID,916.533,VALID,0.0,VALID,96.752,VALID,0.013,VALID,20.954,VALID,360.0,VALID,0.456,
2019-07-22, 02:09:06,VALID,916.538,VALID,0.0,VALID,96.77,VALID,-0.004,VALID,20.939,INVALID,360.0,VALID,0.027,
2019-07-22, 02:10:06,VALID,916.503,VALID,0.0,VALID,96.877,VALID,0.0,VALID,20.941,VALID,354.0,VALID,0.916,
2019-07-22, 02:11:06,VALID,916.498,VALID,0.0,VALID,96.711,VALID,0.004,VALID,20.923,INVALID,360.0,VALID,0.218,
2019-07-22, 02:12:06,VALID,916.498,VALID,0.0,VALID,96.863,VALID,-0.007,VALID,20.947,INVALID,360.0,VALID,0.0,
2019-07-22, 02:13:06,VALID,916.494,VALID,0.0,VALID,96.968,VALID,0.015,VALID,20.968,INVALID,360.0,VALID,0.168,
2019-07-22, 02:14:06,VALID,916.494,VALID,0.0,VALID,96.851,VALID,0.0,VALID,20.964,VALID,357.0,VALID,1.168,
2019-07-22, 02:15:06,VALID,916.494,VALID,0.0,VALID,96.744,VALID,0.003,VALID,20.926,VALID,353.0,VALID,0.886,
2019-07-22, 02:16:06,VALID,916.501,VALID,0.0,VALID,96.873,VALID,0.003,VALID,20.92,INVALID,360.0,VALID,0.0,
2019-07-22, 02:17:06,VALID,916.488,VALID,0.0,VALID,96.872,VALID,0.002,VALID,20.919,INVALID,360.0,VALID,0.0,
2019-07-22, 02:18:06,VALID,916.475,VALID,0.0,VALID,96.834,VALID,0.002,VALID,20.887,INVALID,360.0,VALID,0.0,
2019-07-22, 02:19:06,VALID,916.468,VALID,0.0,VALID,96.814,VALID,-0.014,VALID,20.863,INVALID,360.0,VALID,0.0,
2019-07-22, 02:20:06,VALID,916.467,VALID,0.0,VALID,96.857,VALID,0.007,VALID,20.856,INVALID,360.0,VALID,0.0,
2019-07-22, 02:21:06,VALID,916.452,VALID,0.0,VALID,97.078,VALID,0.01,VALID,20.863,INVALID,360.0,VALID,0.0,
2019-07-22, 02:22:06,VALID,916.437,VALID,0.0,VALID,97.195,VALID,-0.001,VALID,20.847,INVALID,360.0,VALID,0.0,
2019-07-22, 02:23:06,VALID,916.442,VALID,0.0,VALID,97.262,VALID,-0.0,VALID,20.818,INVALID,360.0,VALID,0.0,
2019-07-22, 02:24:06,VALID,916.418,VALID,0.0,VALID,97.288,VALID,-0.002,VALID,20.798,VALID,9.0,VALID,1.05,
2019-07-22, 02:25:06,VALID,916.432,VALID,0.0,VALID,97.246,VALID,-0.011,VALID,20.791,VALID,7.0,VALID,1.208,
2019-07-22, 02:26:06,VALID,916.454,VALID,0.0,VALID,97.187,VALID,-0.01,VALID,20.771,VALID,12.0,VALID,1.107,
2019-07-22, 02:27:06,VALID,916.448,VALID,0.0,VALID,97.273,VALID,-0.005,VALID,20.778,VALID,352.0,VALID,1.05,
2019-07-22, 02:28:06,VALID,916.45,VALID,0.0,VALID,97.181,VALID,0.005,VALID,20.773,VALID,1.0,VALID,0.46,
2019-07-22, 02:29:06,VALID,916.453,VALID,0.0,VALID,97.051,VALID,-0.001,VALID,20.77,VALID,300.0,VALID,0.514,
2019-07-22, 02:30:06,VALID,916.454,VALID,0.0,VALID,96.996,VALID,-0.021,VALID,20.78,VALID,10.0,VALID,1.621,
2019-07-22, 02:31:06,VALID,916.468,VALID,0.0,VALID,97.115,VALID,-0.004,VALID,20.778,VALID,2.0,VALID,0.915,
2019-07-22, 02:32:06,VALID,916.454,VALID,0.0,VALID,97.33,VALID,-0.012,VALID,20.765,VALID,25.0,VALID,0.849,
2019-07-22, 02:33:06,VALID,916.458,VALID,0.0,VALID,97.575,VALID,0.008,VALID,20.774,VALID,5.0,VALID,0.852,
2019-07-22, 02:34:06,VALID,916.447,VALID,0.0,VALID,97.519,VALID,0.013,VALID,20.768,VALID,351.0,VALID,1.316,
2019-07-22, 02:35:06,VALID,916.453,VALID,0.0,VALID,97.326,VALID,0.008,VALID,20.762,INVALID,360.0,VALID,0.23,
2019-07-22, 02:36:06,VALID,916.45,VALID,0.0,VALID,97.29,VALID,0.011,VALID,20.769,INVALID,360.0,VALID,0.0,
2019-07-22, 02:37:06,VALID,916.445,VALID,0.0,VALID,97.402,VALID,0.023,VALID,20.792,INVALID,360.0,VALID,0.0,
2019-07-22, 02:38:06,VALID,916.45,VALID,0.0,VALID,97.369,VALID,0.018,VALID,20.793,INVALID,360.0,VALID,0.0,
2019-07-22, 02:39:06,VALID,916.423,VALID,0.0,VALID,97.359,VALID,0.001,VALID,20.805,INVALID,360.0,VALID,0.077,
2019-07-22, 02:40:06,VALID,916.413,VALID,0.0,VALID,97.363,VALID,0.011,VALID,20.8,VALID,351.0,VALID,1.311,
2019-07-22, 02:41:06,VALID,916.377,VALID,0.0,VALID,97.258,VALID,0.007,VALID,20.784,VALID,9.0,VALID,1.159,
2019-07-22, 02:42:06,VALID,916.381,VALID,0.0,VALID,97.275,VALID,-0.007,VALID,20.775,VALID,1.0,VALID,0.788,
2019-07-22, 02:43:06,VALID,916.372,VALID,0.0,VALID,97.274,VALID,-0.007,VALID,20.76,VALID,358.0,VALID,1.054,
2019-07-22, 02:44:06,VALID,916.375,VALID,0.0,VALID,97.345,VALID,0.008,VALID,20.759,VALID,4.0,VALID,0.985,
2019-07-22, 02:45:06,VALID,916.377,VALID,0.0,VALID,97.438,VALID,0.03,VALID,20.759,VALID,355.0,VALID,0.817,
2019-07-22, 02:46:06,VALID,916.381,VALID,0.0,VALID,97.572,VALID,0.013,VALID,20.773,VALID,10.0,VALID,0.848,
2019-07-22, 02:47:06,VALID,916.38,VALID,0.0,VALID,97.45,VALID,0.018,VALID,20.741,VALID,358.0,VALID,1.141,
2019-07-22, 02:48:06,VALID,916.377,VALID,0.0,VALID,97.298,VALID,0.014,VALID,20.724,VALID,359.0,VALID,1.398,
2019-07-22, 02:49:06,VALID,916.388,VALID,0.0,VALID,97.245,VALID,-0.008,VALID,20.757,VALID,340.0,VALID,0.495,
2019-07-22, 02:50:06,VALID,916.369,VALID,0.0,VALID,97.176,VALID,-0.026,VALID,20.777,INVALID,360.0,VALID,0.0,
2019-07-22, 02:51:06,VALID,916.355,VALID,0.0,VALID,96.985,VALID,-0.011,VALID,20.773,INVALID,360.0,VALID,0.0,
2019-07-22, 02:52:06,VALID,916.324,VALID,0.0,VALID,96.618,VALID,0.003,VALID,20.757,INVALID,360.0,VALID,0.0,
2019-07-22, 02:53:06,VALID,916.295,VALID,0.0,VALID,96.553,VALID,0.008,VALID,20.762,INVALID,360.0,VALID,0.0,
2019-07-22, 02:54:06,VALID,916.297,VALID,0.0,VALID,96.494,VALID,-0.026,VALID,20.769,INVALID,360.0,VALID,0.0,
2019-07-22, 02:55:06,VALID,916.261,VALID,0.0,VALID,96.549,VALID,0.001,VALID,20.789,INVALID,360.0,VALID,0.0,
2019-07-22, 02:56:06,VALID,916.257,VALID,0.0,VALID,96.676,VALID,-0.014,VALID,20.793,INVALID,360.0,VALID,0.0,
2019-07-22, 02:57:06,VALID,916.264,VALID,0.0,VALID,96.757,VALID,-0.007,VALID,20.797,INVALID,360.0,VALID,0.0,
2019-07-22, 02:58:06,VALID,916.268,VALID,0.0,VALID,96.789,VALID,0.0,VALID,20.805,INVALID,360.0,VALID,0.0,
2019-07-22, 02:59:06,VALID,916.277,VALID,0.0,VALID,96.851,VALID,-0.01,VALID,20.815,INVALID,360.0,VALID,0.014,
2019-07-22, 03:00:06,VALID,916.267,VALID,0.0,VALID,96.68,VALID,-0.02,VALID,20.784,VALID,354.0,VALID,1.283,
2019-07-22, 03:01:06,VALID,916.268,VALID,0.0,VALID,96.696,VALID,-0.006,VALID,20.79,VALID,356.0,VALID,0.332,
2019-07-22, 03:02:06,VALID,916.271,VALID,0.0,VALID,96.867,VALID,-0.014,VALID,20.813,VALID,29.0,VALID,0.142,
2019-07-22, 03:03:06,VALID,916.256,VALID,0.0,VALID,96.88,VALID,-0.002,VALID,20.822,INVALID,360.0,VALID,0.002,
2019-07-22, 03:04:06,VALID,916.258,VALID,0.0,VALID,96.861,VALID,0.006,VALID,20.821,INVALID,360.0,VALID,0.092,
2019-07-22, 03:05:06,VALID,916.26,VALID,0.0,VALID,96.906,VALID,0.01,VALID,20.803,VALID,4.0,VALID,0.466,
2019-07-22, 03:06:06,VALID,916.263,VALID,0.0,VALID,97.036,VALID,-0.008,VALID,20.77,VALID,9.0,VALID,0.473,
2019-07-22, 03:07:06,VALID,916.238,VALID,0.0,VALID,97.25,VALID,0.011,VALID,20.756,VALID,15.0,VALID,0.419,
2019-07-22, 03:08:06,VALID,916.231,VALID,0.0,VALID,97.341,VALID,0.017,VALID,20.758,VALID,15.0,VALID,0.507,
2019-07-22, 03:09:06,VALID,916.207,VALID,0.0,VALID,97.479,VALID,0.009,VALID,20.762,INVALID,360.0,VALID,0.0,
2019-07-22, 03:10:06,VALID,916.18,VALID,0.0,VALID,97.522,VALID,0.022,VALID,20.764,INVALID,360.0,VALID,0.0,
2019-07-22, 03:11:06,VALID,916.16,VALID,0.0,VALID,97.545,VALID,0.007,VALID,20.766,INVALID,360.0,VALID,0.0,
2019-07-22, 03:12:06,VALID,916.143,VALID,0.0,VALID,97.392,VALID,0.006,VALID,20.772,INVALID,360.0,VALID,0.0,
2019-07-22, 03:13:06,VALID,916.142,VALID,0.0,VALID,97.284,VALID,0.023,VALID,20.779,INVALID,360.0,VALID,0.0,
2019-07-22, 03:14:06,VALID,916.142,VALID,0.0,VALID,97.169,VALID,0.016,VALID,20.767,INVALID,360.0,VALID,0.0,
2019-07-22, 03:15:06,VALID,916.124,VALID,0.0,VALID,97.171,VALID,0.015,VALID,20.75,INVALID,360.0,VALID,0.0,
2019-07-22, 03:16:06,VALID,916.145,VALID,0.0,VALID,97.143,VALID,0.021,VALID,20.73,INVALID,360.0,VALID,0.0,
2019-07-22, 03:17:06,VALID,916.136,VALID,0.0,VALID,97.192,VALID,0.032,VALID,20.712,INVALID,360.0,VALID,0.0,
2019-07-22, 03:18:06,VALID,916.139,VALID,0.0,VALID,97.166,VALID,0.016,VALID,20.687,INVALID,360.0,VALID,0.316,
2019-07-22, 03:19:06,VALID,916.148,VALID,0.0,VALID,97.282,VALID,0.011,VALID,20.683,INVALID,360.0,VALID,0.088,
2019-07-22, 03:20:06,VALID,916.15,VALID,0.0,VALID,97.303,VALID,-0.006,VALID,20.658,VALID,2.0,VALID,0.187,
2019-07-22, 03:21:06,VALID,916.151,VALID,0.0,VALID,97.368,VALID,-0.003,VALID,20.64,INVALID,360.0,VALID,0.0,
2019-07-22, 03:22:06,VALID,916.138,VALID,0.0,VALID,97.391,VALID,0.002,VALID,20.618,INVALID,360.0,VALID,0.0,
2019-07-22, 03:23:06,VALID,916.151,VALID,0.0,VALID,97.484,VALID,0.004,VALID,20.626,INVALID,360.0,VALID,0.0,
2019-07-22, 03:24:06,VALID,916.133,VALID,0.0,VALID,97.516,VALID,-0.018,VALID,20.646,INVALID,360.0,VALID,0.0,
2019-07-22, 03:25:06,VALID,916.128,VALID,0.0,VALID,97.47,VALID,-0.011,VALID,20.665,INVALID,360.0,VALID,0.016,
2019-07-22, 03:26:06,VALID,916.111,VALID,0.0,VALID,97.392,VALID,0.008,VALID,20.655,INVALID,360.0,VALID,0.0,
2019-07-22, 03:27:06,VALID,916.099,VALID,0.0,VALID,97.299,VALID,0.01,VALID,20.621,INVALID,360.0,VALID,0.0,
2019-07-22, 03:28:06,VALID,916.112,VALID,0.0,VALID,97.363,VALID,-0.007,VALID,20.582,INVALID,360.0,VALID,0.0,
2019-07-22, 03:29:06,VALID,916.085,VALID,0.0,VALID,97.533,VALID,-0.001,VALID,20.562,INVALID,360.0,VALID,0.0,
2019-07-22, 03:30:06,VALID,916.092,VALID,0.0,VALID,97.677,VALID,-0.012,VALID,20.551,INVALID,360.0,VALID,0.0,
2019-07-22, 03:31:06,VALID,916.084,VALID,0.0,VALID,97.743,VALID,0.011,VALID,20.541,INVALID,360.0,VALID,0.0,
2019-07-22, 03:32:06,VALID,916.093,VALID,0.0,VALID,97.78,VALID,0.004,VALID,20.521,INVALID,360.0,VALID,0.0,
2019-07-22, 03:33:06,VALID,916.085,VALID,0.0,VALID,97.869,VALID,0.005,VALID,20.518,INVALID,360.0,VALID,0.0,
2019-07-22, 03:34:06,VALID,916.109,VALID,0.0,VALID,97.891,VALID,0.013,VALID,20.512,INVALID,360.0,VALID,0.0,
2019-07-22, 03:35:06,VALID,916.109,VALID,0.0,VALID,97.867,VALID,0.006,VALID,20.509,INVALID,360.0,VALID,0.0,
2019-07-22, 03:36:06,VALID,916.122,VALID,0.0,VALID,97.854,VALID,0.021,VALID,20.509,INVALID,360.0,VALID,0.0,
2019-07-22, 03:37:06,VALID,916.134,VALID,0.0,VALID,97.865,VALID,0.011,VALID,20.524,INVALID,360.0,VALID,0.0,
2019-07-22, 03:38:06,VALID,916.132,VALID,0.0,VALID,97.821,VALID,-0.001,VALID,20.524,INVALID,360.0,VALID,0.0,